GFSNW_925_temp_210.txt.gz
Temp
4 4 4 4 4 5 4 3 4 3 4 4 5 5 6 8 9 10 9 10 10 8 9 9 10 10 17 19 18 17 19 19 18 21 24 23 23 21 21 16 16 18 19 20
4 4 4 4 4 4 4 4 4 2 5 5 5 5 5 7 7 9 9 8 10 11 9 8 8 8 10 8 10 17 18 16 15 17 20 21 21 22 22 21 17 17 16 19
4 4 4 4 4 4 4 3 4 3 3 6 6 6 5 5 8 8 9 9 9 9 8 8 6 8 10 9 8 9 9 14 16 17 19 20 17 20 22 21 17 18 19 21
4 4 4 4 4 4 4 3 4 6 4 4 5 7 6 6 5 8 9 8 9 8 7 8 8 9 11 12 11 9 8 12 14 17 19 21 20 20 21 21 20 19 21 23
4 4 4 4 4 4 3 4 4 6 8 8 6 6 5 6 7 7 7 7 9 9 8 9 8 10 11 10 12 9 7 10 14 14 18 19 20 21 21 21 22 22 22 22
4 4 4 4 4 4 3 2 5 5 7 7 7 7 6 7 8 8 9 9 8 8 9 11 11 11 10 10 9 9 8 7 9 12 15 16 15 17 20 21 22 22 21 23
4 4 4 4 4 4 4 4 4 4 5 7 7 8 8 7 8 7 9 9 8 9 10 10 10 9 10 10 10 9 8 9 9 10 12 13 15 19 20 20 21 22 23 24
5 5 5 5 5 5 4 4 4 4 5 7 7 7 7 8 9 8 8 9 10 10 6 6 6 7 7 7 7 9 8 8 9 10 13 15 17 18 17 18 19 21 22 23
5 5 5 5 5 5 4 4 4 4 4 6 7 7 8 7 6 6 7 9 9 7 5 6 6 8 10 11 9 10 11 10 9 10 11 14 19 21 21 19 16 20 21 21
4 4 5 5 5 5 4 4 4 3 3 5 7 7 6 8 7 6 8 7 7 7 6 7 7 8 10 10 11 11 10 9 9 9 10 16 21 20 19 14 17 20 19 21
4 4 4 3 3 4 3 4 3 4 3 4 7 7 6 7 6 6 8 7 6 5 6 7 8 8 10 11 13 13 11 11 11 10 11 13 18 18 17 18 17 20 19 19
4 4 4 4 3 4 4 3 3 3 3 3 5 6 7 8 8 6 7 7 8 8 7 9 10 9 11 11 11 12 11 10 13 10 12 12 17 19 18 14 17 17 19 19
4 4 4 4 3 3 4 4 4 4 3 3 3 4 5 5 6 6 4 6 8 7 10 9 9 10 12 11 12 13 12 10 12 10 12 11 11 15 14 14 15 16 15 17
3 4 4 4 3 3 4 5 5 3 2 5 7 6 6 6 4 4 4 5 8 10 9 7 8 9 7 10 10 13 14 12 12 12 13 13 12 13 12 13 14 14 14 15
4 4 3 3 3 3 4 4 3 3 3 5 5 6 5 4 5 5 4 4 5 6 7 7 7 10 9 9 8 9 12 13 12 14 15 13 13 13 13 13 14 13 13 13
3 4 3 3 3 3 4 3 3 3 3 3 6 5 4 3 4 5 5 4 5 5 6 7 8 11 10 9 10 14 14 14 14 14 13 14 14 14 14 14 13 13 13 13
3 4 3 3 4 4 6 6 6 4 3 3 6 7 4 2 4 5 5 5 4 5 5 6 7 7 8 8 11 14 13 13 13 13 12 11 12 13 13 13 13 12 13 13
4 5 4 5 5 4 5 6 5 4 3 3 6 8 6 3 4 4 3 4 4 4 6 5 7 6 7 8 12 13 12 12 12 12 13 14 13 12 12 11 12 11 11 11
4 5 5 4 6 6 8 5 4 4 3 5 6 7 7 4 4 4 4 4 6 4 6 6 6 7 8 11 11 10 11 11 12 12 12 12 12 12 12 13 13 11 10 10
5 5 7 4 7 4 4 5 6 6 5 4 6 7 6 5 6 6 6 5 6 7 6 5 7 9 9 8 8 9 10 11 11 11 11 11 10 11 12 12 11 10 10 9
5 5 3 4 4 6 7 6 7 6 6 7 5 5 6 5 6 6 5 7 7 8 7 7 9 9 8 7 6 7 9 10 10 10 11 11 10 10 10 8 6 6 8 7
3 3 2 3 6 7 7 7 7 7 6 6 6 6 5 5 5 6 6 6 7 7 8 7 8 7 6 5 4 4 5 6 7 8 7 7 7 8 8 7 7 6 3 1
3 3 5 6 6 5 6 5 7 7 6 6 6 6 6 7 6 7 7 7 7 8 7 8 9 7 6 5 4 4 5 5 5 6 5 5 5 5 5 3 1 1 0 0
5 6 5 6 6 7 7 7 6 6 6 6 6 6 6 7 7 7 6 7 7 7 7 8 8 7 6 4 4 6 6 5 6 5 4 2 1 0 0 0 -0 -0 -0 -1
6 6 5 6 7 5 5 5 4 6 6 6 7 7 7 7 6 7 7 6 7 8 8 7 7 7 6 5 4 3 2 2 2 2 1 0 0 0 -0 -0 -1 -1 -1 -1
5 6 5 4 4 5 3 4 5 7 4 6 7 7 6 6 7 7 7 7 7 7 7 4 4 5 5 4 3 3 2 2 1 1 0 0 0 0 -0 -1 -1 -1 -1 -1
6 5 2 5 4 7 5 6 7 6 6 7 7 6 7 7 7 7 8 7 7 5 3 3 4 3 3 3 2 1 2 2 1 1 1 -0 -1 -1 0 -0 -1 -1 -1 -1

GFSNW_925_temp_216.txt.gz
Temp
4 4 4 4 5 5 5 6 5 7 6 6 6 6 8 10 11 12 11 11 12 11 12 11 11 8 9 11 8 8 8 11 14 16 21 23 23 23 23 19 19 20 20 20
4 4 4 4 4 5 6 5 6 6 5 6 6 6 7 9 10 11 11 11 12 12 11 10 11 11 9 7 7 6 7 8 10 14 16 19 20 21 21 21 20 17 17 18
4 4 4 4 4 4 4 5 5 5 5 7 7 7 7 7 9 10 11 11 12 11 10 11 10 10 11 12 9 9 7 8 8 10 11 11 13 19 21 20 16 17 19 20
4 4 4 4 4 4 4 5 5 8 6 5 7 8 8 8 8 10 10 10 10 9 8 9 10 11 12 13 13 12 7 7 10 10 11 12 13 15 17 21 20 15 16 20
5 5 5 4 5 4 4 3 5 8 8 9 8 8 7 8 9 10 8 9 11 11 10 10 9 10 10 10 11 9 7 7 10 8 11 12 10 12 14 16 19 22 22 20
5 5 5 5 5 4 4 5 7 5 7 8 8 8 8 7 9 10 11 11 10 10 11 12 12 12 11 11 10 9 8 8 8 8 11 10 9 13 15 16 19 21 22 23
4 5 5 4 4 4 5 6 6 5 6 8 8 9 10 10 10 9 9 10 9 11 13 12 12 11 11 11 12 12 9 8 8 8 9 8 12 16 16 17 20 21 22 25
4 5 5 5 5 4 4 5 4 4 5 7 8 9 9 10 10 10 11 11 12 13 8 6 7 8 7 8 8 10 11 9 8 8 9 10 12 14 15 17 18 22 21 22
4 4 4 5 5 5 4 5 5 4 4 6 8 8 8 8 8 8 9 11 11 10 8 6 7 7 9 9 10 12 11 10 8 9 8 9 13 15 17 18 13 17 20 22
3 4 4 4 4 4 4 5 5 4 4 5 7 7 7 9 8 7 8 8 8 9 6 6 7 8 10 9 9 10 10 10 8 8 8 11 15 16 17 13 14 17 16 19
2 3 3 3 3 3 3 4 5 5 4 5 6 7 7 8 7 6 8 7 7 6 6 7 8 8 9 10 11 11 10 10 9 8 8 9 15 16 15 16 14 14 14 17
2 2 2 2 3 3 3 4 5 5 4 4 5 6 7 7 8 6 5 6 7 7 7 8 9 9 10 10 9 13 11 12 11 9 11 14 16 16 15 14 13 14 13 13
1 1 2 2 2 2 3 3 4 4 4 4 4 5 6 6 6 6 5 5 5 6 8 7 7 7 10 10 10 11 12 14 12 12 12 13 14 17 16 16 14 15 13 14
1 1 1 2 2 2 3 3 5 4 4 4 6 8 9 8 7 7 5 5 5 5 6 6 7 7 10 10 10 9 10 9 8 9 13 12 11 16 16 16 16 14 14 15
1 1 1 2 2 2 3 3 4 5 5 6 6 7 8 8 8 8 7 6 4 4 4 5 7 8 8 9 9 9 11 11 10 9 12 13 13 16 17 16 15 13 12 12
1 1 1 1 2 2 3 3 7 7 6 3 5 9 9 10 8 8 7 6 5 3 5 6 8 10 8 8 9 12 14 14 11 10 13 12 13 14 15 14 13 12 10 10
1 1 1 1 1 2 4 6 6 5 4 4 4 7 8 7 5 4 5 5 3 4 4 5 7 9 7 8 8 11 13 14 12 10 11 10 12 13 14 15 14 10 10 9
1 1 1 2 2 2 4 4 6 4 5 4 4 7 7 6 6 5 3 4 3 4 5 6 8 9 9 7 11 13 14 14 15 12 11 10 10 11 13 15 14 11 10 10
1 1 2 3 5 7 7 6 7 5 6 6 5 7 8 7 7 6 4 4 5 5 5 7 8 8 8 10 11 12 14 13 12 13 10 13 12 13 15 15 14 14 13 10
3 2 7 4 7 6 7 5 7 5 5 4 5 8 7 8 8 7 6 5 6 7 7 9 7 9 11 12 13 13 13 12 13 13 13 14 14 14 14 14 14 13 13 12
6 6 6 6 6 7 9 6 6 7 6 5 6 8 7 8 7 6 6 7 7 8 8 8 9 10 10 12 12 10 9 9 10 11 12 12 13 14 13 11 10 10 11 10
3 1 3 5 6 7 8 8 9 10 10 10 9 9 8 8 7 6 6 7 7 8 8 8 10 6 9 8 6 5 6 8 8 9 10 10 12 11 10 8 5 4 3 3
3 3 3 4 6 6 7 7 9 10 11 10 10 9 8 8 7 6 6 6 8 9 8 10 9 8 6 5 4 4 5 5 4 4 3 4 5 5 3 2 2 2 1 2
6 6 4 7 7 8 9 10 11 12 11 10 10 9 8 8 7 6 6 7 8 8 8 10 8 7 5 4 5 5 4 3 2 2 1 1 1 1 1 1 1 1 1 1
5 7 6 8 10 10 11 11 11 11 11 11 9 9 9 8 6 7 7 7 7 9 8 7 6 6 5 4 4 4 3 2 2 2 1 1 0 1 0 0 0 1 1 1
5 7 8 9 9 7 7 7 8 10 10 10 10 9 8 8 9 8 8 8 8 9 7 6 6 5 4 3 3 3 3 3 2 2 1 1 1 0 0 -0 -0 -0 0 0
6 6 6 7 8 6 6 7 8 10 9 8 9 8 8 10 9 9 9 9 9 6 5 6 6 5 4 3 2 1 3 3 3 2 2 1 0 1 1 1 0 -0 -0 -0

GFSNW_925_temp_222.txt.gz
Temp
5 4 4 4 4 5 5 3 -1 5 6 2 2 -0 5 8 8 9 8 9 9 8 8 8 8 7 9 9 8 7 6 6 6 11 14 13 16 15 15 13 15 13 14 16
5 5 4 4 4 4 5 -2 -1 5 6 -2 -0 1 4 6 6 7 8 7 8 8 7 5 8 9 11 8 8 7 7 5 5 8 11 11 8 8 8 9 10 12 14 13
5 4 4 4 4 4 4 -1 -2 2 3 3 4 3 1 2 7 7 8 7 8 7 6 6 4 8 10 10 8 10 8 6 6 5 7 9 8 9 8 8 9 10 11 13
4 5 4 4 4 4 4 -0 -1 1 -2 1 2 4 4 5 4 7 7 6 7 6 2 3 6 7 9 10 10 9 6 6 8 7 8 9 9 10 10 10 9 9 11 11
4 4 4 4 4 4 4 -0 0 1 2 4 2 3 2 5 6 6 6 6 6 6 5 6 5 6 7 7 9 8 6 5 7 6 9 8 8 9 9 9 10 10 10 11
4 4 4 4 4 4 3 2 3 3 2 3 2 2 5 5 6 6 7 7 6 6 6 7 6 6 6 7 7 7 6 6 6 7 8 9 7 9 9 10 11 12 11 13
4 4 4 4 4 4 4 4 3 2 2 1 2 5 6 5 6 5 7 6 6 7 6 6 5 6 7 6 7 7 6 6 6 6 7 6 9 11 11 11 12 12 13 14
3 4 4 4 4 4 3 4 3 3 4 3 3 4 4 5 5 5 5 6 7 6 6 3 2 -0 1 1 5 6 7 7 2 6 5 7 9 10 10 11 11 12 13 13
2 3 3 3 3 4 3 4 4 3 3 4 5 3 4 3 3 3 4 6 7 7 3 2 4 2 2 3 5 6 6 6 6 3 6 5 9 11 12 12 8 12 13 13
1 2 2 2 2 3 3 3 4 2 2 2 3 4 2 3 4 4 5 5 6 6 3 4 4 5 6 6 7 5 3 0 5 5 6 7 10 11 12 8 8 12 12 12
1 1 1 1 1 2 2 3 3 3 2 3 4 4 3 3 3 3 4 4 3 3 5 4 2 3 4 6 8 8 7 4 2 2 5 6 11 11 9 10 11 11 12 12
1 1 1 1 1 1 2 2 3 3 2 2 4 4 5 4 5 4 4 4 5 5 5 5 4 5 5 5 6 8 7 8 6 7 5 8 10 9 10 10 10 11 11 11
1 1 1 1 1 1 2 2 2 2 1 2 2 3 5 4 5 4 3 4 5 5 5 4 5 5 3 5 6 7 7 9 7 8 9 9 10 10 11 10 8 8 9 10
1 1 1 1 1 1 1 2 2 2 2 2 3 6 4 6 6 5 4 4 5 5 4 4 5 5 5 5 6 6 7 8 8 8 9 9 10 10 10 9 10 9 9 9
2 1 1 1 1 1 1 1 1 1 2 0 0 4 5 5 5 5 4 4 4 4 4 3 5 4 5 5 5 6 8 7 7 7 9 8 9 10 10 10 9 9 9 9
1 1 1 1 1 1 1 1 3 1 1 2 3 2 3 5 5 4 5 4 4 4 4 5 5 6 5 5 6 9 9 9 8 8 9 9 9 10 10 10 9 9 9 8
1 1 1 1 1 1 1 0 3 3 2 2 2 0 2 5 4 2 2 5 4 4 3 4 5 5 5 5 6 9 8 8 8 8 8 8 9 9 10 10 9 9 9 9
0 0 1 1 1 1 1 1 2 3 1 1 2 2 1 4 3 4 3 4 3 3 4 4 5 4 4 5 8 7 8 9 9 9 9 9 9 8 9 9 9 8 8 8
0 1 1 1 1 1 2 4 4 1 2 3 3 1 -0 3 4 4 2 3 4 3 4 5 4 3 4 6 7 8 9 8 9 9 9 8 8 8 9 9 9 8 8 7
0 0 1 2 2 4 4 4 4 2 2 2 3 1 2 2 -0 1 4 4 5 5 5 4 4 4 7 7 6 6 5 6 7 7 7 7 7 8 8 8 8 8 8 7
1 1 2 1 3 4 3 0 3 2 4 3 3 2 4 2 2 2 4 5 5 6 4 5 6 5 6 5 4 4 4 4 4 5 5 5 5 6 8 7 7 7 7 6
0 -0 1 1 0 1 3 3 3 3 4 3 2 2 1 2 2 4 2 4 4 5 5 6 5 4 4 5 5 4 4 3 3 3 3 3 3 3 3 4 4 3 3 3
0 -1 0 1 1 1 3 2 4 2 4 3 3 3 4 3 2 3 3 4 4 5 5 6 6 6 5 5 4 4 2 2 2 2 2 2 2 1 2 2 1 1 1 2
-1 1 -0 2 1 2 3 4 3 4 4 5 4 3 4 2 4 3 5 4 4 2 3 5 5 5 5 4 3 3 2 1 1 1 1 0 0 1 0 0 1 1 1 1
0 1 1 1 3 3 2 2 3 4 4 5 5 4 3 2 2 4 4 4 4 5 3 5 4 5 4 3 3 2 1 1 1 1 1 0 0 0 0 -0 0 1 1 1
-1 0 1 1 1 1 1 1 2 4 2 4 3 5 3 4 4 4 3 5 5 4 2 1 3 3 2 2 2 1 1 1 1 0 0 -0 -0 -0 -0 -0 -0 -0 0 0
1 -1 -3 1 1 -1 1 1 3 3 3 3 3 4 5 5 4 5 4 4 3 1 -0 -0 3 3 2 1 1 1 1 1 1 0 -0 -0 -0 -0 0 0 -0 -0 -0 -0

GFSNW_925_temp_225.txt.gz
Temp
5 5 4 4 4 5 5 2 -1 5 5 1 -5 -2 4 7 7 8 7 8 7 7 7 7 7 7 9 9 9 7 7 5 6 8 11 11 9 9 9 12 13 13 14 15
5 5 4 4 4 4 4 -2 -2 5 5 -2 -2 1 3 5 6 6 7 7 7 7 7 4 7 8 10 9 8 6 7 3 3 8 10 10 7 7 7 8 9 10 13 15
4 5 4 4 4 4 5 -2 -2 -2 1 1 4 3 0 1 6 6 7 7 7 6 6 6 4 7 8 9 9 10 8 5 5 6 7 8 9 9 9 7 7 8 8 9
4 4 4 4 4 4 4 -1 -3 -0 -3 -1 2 4 4 4 4 6 6 6 7 5 4 3 5 6 7 8 9 8 6 5 7 7 8 8 8 8 9 9 8 8 10 10
4 4 4 4 4 4 4 -2 -0 1 2 3 2 2 -0 4 5 5 5 5 6 6 5 6 5 6 5 6 7 7 5 5 7 6 8 8 8 8 8 9 10 10 9 9
4 4 4 4 4 4 2 1 2 1 2 2 2 1 4 5 5 5 6 6 5 4 5 6 6 6 5 5 6 5 4 4 4 5 8 8 7 8 8 9 10 10 9 11
4 4 4 4 4 4 4 3 2 1 0 1 2 4 4 4 5 4 5 5 4 6 6 6 5 4 5 5 5 6 4 5 5 5 5 5 8 10 10 9 10 11 11 12
3 3 3 3 4 3 3 3 3 3 3 2 3 3 4 4 4 4 4 5 6 5 5 2 -0 -1 -0 1 4 5 5 5 5 5 4 7 8 9 9 9 9 11 11 12
2 2 2 3 3 3 3 3 3 3 2 0 4 3 3 3 2 1 3 5 6 5 2 3 3 2 3 3 4 5 5 6 6 0 4 2 9 10 11 10 7 10 11 11
1 1 1 1 2 2 2 3 3 2 2 2 3 1 2 2 1 1 3 4 4 5 1 3 4 4 6 5 6 4 4 4 5 5 5 7 9 10 11 7 8 11 10 10
1 1 1 1 1 1 2 3 3 2 2 3 3 3 2 2 2 3 2 3 1 1 3 2 2 1 3 6 7 8 7 5 4 5 5 5 9 9 8 9 9 9 9 9
1 1 1 1 1 1 1 2 3 3 2 2 3 3 4 3 4 3 2 3 3 2 3 4 4 5 5 5 6 8 6 7 6 6 4 7 8 9 8 8 9 9 9 10
1 1 1 1 1 1 1 1 2 1 1 2 2 2 4 3 3 4 3 4 5 4 4 4 4 4 2 5 6 6 6 8 7 6 7 8 9 9 10 10 9 8 9 9
1 1 1 1 1 1 1 1 1 1 1 2 2 5 3 5 5 3 3 3 4 3 4 4 4 4 5 5 6 6 7 8 7 7 8 8 9 9 9 9 9 9 9 9
1 1 1 1 1 1 1 1 1 1 1 -0 -0 3 4 5 4 3 3 2 2 3 3 3 4 4 5 5 5 5 7 7 6 6 8 7 8 8 8 8 9 9 9 10
1 1 1 1 1 1 1 -2 2 1 1 0 1 1 2 4 5 3 2 2 2 3 3 4 4 4 5 5 5 8 9 9 8 7 8 8 8 8 8 8 8 9 9 9
-0 0 0 0 0 1 0 -1 2 1 -0 1 1 -0 1 3 3 1 2 2 3 3 3 4 4 4 5 5 6 8 9 8 8 7 7 6 7 7 8 9 9 9 9 9
-0 0 -0 -0 0 0 1 1 2 1 -0 0 1 2 -0 3 -0 1 3 4 3 3 4 4 4 4 4 5 7 7 7 7 7 7 7 7 8 8 8 8 8 8 8 8
0 -0 -0 0 -0 -0 2 2 2 1 1 -3 -2 1 -1 2 2 4 3 3 3 3 4 4 4 3 4 6 6 6 6 6 5 6 7 7 6 7 7 7 8 8 9 8
0 1 -0 0 1 1 2 2 1 1 1 -0 2 3 2 1 -1 0 2 3 4 4 3 3 4 4 6 6 5 4 5 4 4 5 5 6 6 6 6 7 7 8 7 7
1 0 1 1 1 0 2 3 3 3 3 2 2 3 3 1 1 1 0 3 5 5 3 4 4 5 5 5 5 4 5 4 3 3 4 4 4 4 4 4 5 6 6 5
-0 -1 -0 0 -1 1 3 2 3 4 3 2 1 1 2 2 2 3 3 4 4 5 4 5 5 3 5 5 4 4 3 3 2 3 3 3 2 3 2 3 3 2 2 2
-0 -0 -0 -0 -1 1 3 -0 4 2 2 2 2 3 2 3 3 3 3 4 4 3 5 5 5 5 4 4 3 3 3 2 1 1 1 1 1 1 1 1 1 1 1 1
-1 -0 -2 1 1 1 2 3 3 3 3 3 2 2 4 3 4 4 4 3 3 2 3 4 3 4 4 3 3 3 2 1 1 1 1 0 0 0 0 0 1 1 1 1
-1 0 -0 1 2 1 1 2 2 3 2 3 2 3 3 4 3 3 3 4 4 4 3 1 2 4 3 3 2 2 1 1 1 0 0 -0 -0 -0 -0 -0 0 0 0 0
-1 -1 0 -0 -0 -1 -1 1 1 3 -0 2 2 4 4 4 4 4 3 4 4 3 2 1 2 3 2 2 2 1 1 1 1 0 0 -0 -0 -0 -0 -0 -0 -0 -0 -0
-0 -2 -4 -1 0 -2 -1 -0 2 3 3 4 4 4 5 4 3 5 4 3 3 1 -0 -1 1 2 3 2 1 1 1 1 1 -0 -0 -0 -1 -0 -0 0 -0 -0 -0 -0